User: anonymous
Location: Caltech
(34.1382°N, 118.1253°W)
Time: 11:40:35
(UTC-07:00)
Language:

Cosmos 1937 Rocket - Orbit

View from above orbital plane
View from above orbital plane
View from above satellite
View from above satellite

Ground track
Ground track

The orbit data is extracted from the following two-line orbital elements,

1 19039U 88029B   14107.92208653  .00000358  00000-0  12688-3 0    48
2 19039 074.0482 268.1956 0023988 005.7497 156.3954 14.37970381364625
Epoch (UTC): 17 April 2014 22:07:48
Eccentricity: 0.0023988
inclination: 74.0482°
perigee height: 748 km
apogee height: 782 km
right ascension of ascending node: 268.1956°
argument of perigee: 5.7497°
revolutions per day: 14.37970381
mean anomaly at epoch: 156.3954°
orbit number at epoch: 36462

The dashed part of the orbit path shows where the satellite is in the earth's shadow,  

DLR